,,,PA_Meas_PMT16A,,PR_Meas_QMR101_102,,RH_Meas_QMH101,,SR_Meas_QMS101,,TA_Meas_QMH101,,GenWind,,GenWind,
date,time,status,PA,status,PR,status,RH,status,SR,status,TA,status,DirAvg,status,SpdAvg,
2009-06-24, 00:00:05,VALID,1009.53,VALID,0,VALID,92.1496,VALID,0.105969,VALID,23.6727,VALID,65,VALID,0.746484,
2009-06-24, 00:01:05,VALID,1009.49,VALID,0,VALID,92.1115,VALID,0,VALID,23.6532,VALID,87,VALID,0.896875,
2009-06-24, 00:02:05,VALID,1009.44,VALID,0,VALID,92.0733,VALID,0,VALID,23.6338,VALID,91,VALID,0.942578,
2009-06-24, 00:03:05,VALID,1009.41,VALID,0,VALID,92.0352,VALID,0.105969,VALID,23.6532,VALID,91,VALID,0.810547,
2009-06-24, 00:04:05,VALID,1009.38,VALID,0,VALID,91.9895,VALID,0.105969,VALID,23.6338,VALID,95,VALID,1.12969,
2009-06-24, 00:05:05,VALID,1009.35,VALID,0,VALID,91.9361,VALID,0,VALID,23.6143,VALID,93,VALID,0.924219,
2009-06-24, 00:06:05,VALID,1009.35,VALID,0,VALID,91.8751,VALID,0,VALID,23.5948,VALID,112,VALID,1.45859,
2009-06-24, 00:07:05,VALID,1009.35,VALID,0,VALID,91.8293,VALID,0.105969,VALID,23.6338,VALID,90,VALID,0.648438,
2009-06-24, 00:08:05,VALID,1009.32,VALID,0,VALID,91.7988,VALID,0.105969,VALID,23.6356,VALID,95,VALID,0.796484,
2009-06-24, 00:09:05,VALID,1009.31,VALID,0,VALID,91.7302,VALID,0,VALID,23.6143,VALID,102,VALID,1.03555,
2009-06-24, 00:10:05,VALID,1009.34,VALID,0,VALID,91.6921,VALID,0.105969,VALID,23.5948,VALID,113,VALID,0.969531,
2009-06-24, 00:11:05,VALID,1009.32,VALID,0,VALID,91.6387,VALID,0.105969,VALID,23.6143,VALID,91,VALID,0.342187,
2009-06-24, 00:12:05,VALID,1009.32,VALID,0,VALID,91.6311,VALID,0.105969,VALID,23.5948,VALID,91,VALID,0.557422,
2009-06-24, 00:13:05,VALID,1009.32,VALID,0,VALID,91.5929,VALID,0.105969,VALID,23.5753,VALID,91,VALID,0.352734,
2009-06-24, 00:14:05,VALID,1009.34,VALID,0,VALID,91.5929,VALID,0.105969,VALID,23.5753,VALID,91,VALID,0.336719,
2009-06-24, 00:15:05,VALID,1009.3,VALID,0,VALID,91.57,VALID,0,VALID,23.5753,VALID,90,VALID,0.04375,
2009-06-24, 00:16:05,VALID,1009.31,VALID,0,VALID,91.5624,VALID,0.105969,VALID,23.5346,VALID,50,VALID,0.460547,
2009-06-24, 00:17:05,VALID,1009.29,VALID,0,VALID,91.5548,VALID,0.105969,VALID,23.5363,VALID,41,VALID,0.484375,
2009-06-24, 00:18:05,VALID,1009.3,VALID,0,VALID,91.509,VALID,0.105969,VALID,23.5363,VALID,12,VALID,0.299609,
2009-06-24, 00:19:05,VALID,1009.23,VALID,0,VALID,91.5014,VALID,0.105969,VALID,23.5381,VALID,12,VALID,0.355078,
2009-06-24, 00:20:05,VALID,1009.22,VALID,0,VALID,91.448,VALID,0.105969,VALID,23.5169,VALID,12,VALID,0.386328,
2009-06-24, 00:21:05,VALID,1009.22,VALID,0,VALID,91.4557,VALID,0,VALID,23.5169,VALID,10,VALID,0.0527344,
2009-06-24, 00:22:05,VALID,1009.2,VALID,0,VALID,91.509,VALID,0,VALID,23.5169,VALID,10,VALID,0,
2009-06-24, 00:23:05,VALID,1009.17,VALID,0,VALID,91.5243,VALID,0,VALID,23.4974,VALID,10,VALID,0,
2009-06-24, 00:24:05,VALID,1009.21,VALID,0,VALID,91.5777,VALID,0.105969,VALID,23.4974,VALID,10,VALID,0,
2009-06-24, 00:25:05,VALID,1009.2,VALID,0,VALID,91.6082,VALID,0,VALID,23.4779,VALID,10,VALID,0,
2009-06-24, 00:26:05,VALID,1009.23,VALID,0,VALID,91.6463,VALID,0,VALID,23.4779,VALID,10,VALID,0,
2009-06-24, 00:27:05,VALID,1009.2,VALID,0,VALID,91.6844,VALID,0.105969,VALID,23.4566,VALID,10,VALID,0.165234,
2009-06-24, 00:28:05,VALID,1009.2,VALID,0,VALID,91.7226,VALID,0,VALID,23.4584,VALID,10,VALID,0.00507812,
2009-06-24, 00:29:05,VALID,1009.18,VALID,0,VALID,91.7531,VALID,0,VALID,23.4584,VALID,10,VALID,0.134766,
2009-06-24, 00:30:05,VALID,1009.19,VALID,0,VALID,91.7912,VALID,0,VALID,23.4584,VALID,10,VALID,0.000390625,
2009-06-24, 00:31:05,VALID,1009.17,VALID,0,VALID,91.837,VALID,0.105969,VALID,23.4797,VALID,14,VALID,0.144922,
2009-06-24, 00:32:05,VALID,1009.16,VALID,0,VALID,91.8751,VALID,0.105969,VALID,23.4584,VALID,38,VALID,0.380078,
2009-06-24, 00:33:05,VALID,1009.13,VALID,0,VALID,91.9208,VALID,0.105969,VALID,23.4389,VALID,48,VALID,0.488672,
2009-06-24, 00:34:05,VALID,1009.09,VALID,0,VALID,91.9056,VALID,0.105969,VALID,23.4389,VALID,61,VALID,0.420312,
2009-06-24, 00:35:05,VALID,1009.03,VALID,0,VALID,91.9132,VALID,0.105969,VALID,23.4389,VALID,62,VALID,0.0183594,
2009-06-24, 00:36:05,VALID,1009.03,VALID,0,VALID,91.9208,VALID,0.105969,VALID,23.4389,VALID,61,VALID,0.548828,
2009-06-24, 00:37:05,VALID,1008.98,VALID,0,VALID,91.9361,VALID,0.105969,VALID,23.4194,VALID,60,VALID,0.250781,
2009-06-24, 00:38:05,VALID,1008.94,VALID,0,VALID,91.959,VALID,0,VALID,23.4,VALID,60,VALID,0.00195313,
2009-06-24, 00:39:05,VALID,1008.89,VALID,0,VALID,91.9666,VALID,0.105969,VALID,23.4,VALID,60,VALID,0.237109,
2009-06-24, 00:40:05,VALID,1008.89,VALID,0,VALID,91.9818,VALID,0.105969,VALID,23.3805,VALID,60,VALID,0.180078,
2009-06-24, 00:41:05,VALID,1008.85,VALID,0,VALID,92.0123,VALID,0,VALID,23.3805,VALID,60,VALID,0,
2009-06-24, 00:42:05,VALID,1008.85,VALID,0,VALID,92.0047,VALID,0,VALID,23.361,VALID,60,VALID,0.0757812,
2009-06-24, 00:43:05,VALID,1008.82,VALID,0,VALID,92.02,VALID,0.105969,VALID,23.3415,VALID,60,VALID,0.0148437,
2009-06-24, 00:44:05,VALID,1008.8,VALID,0,VALID,92.0276,VALID,0.105969,VALID,23.361,VALID,60,VALID,0.0945313,
2009-06-24, 00:45:05,VALID,1008.8,VALID,0,VALID,92.0428,VALID,0.105969,VALID,23.361,VALID,60,VALID,0.167578,
2009-06-24, 00:46:05,VALID,1008.74,VALID,0,VALID,92.0733,VALID,0.105969,VALID,23.3415,VALID,60,VALID,0,
2009-06-24, 00:47:05,VALID,1008.76,VALID,0,VALID,92.0886,VALID,0.105969,VALID,23.361,VALID,60,VALID,0,
2009-06-24, 00:48:05,VALID,1008.7,VALID,0,VALID,92.0962,VALID,0.105969,VALID,23.361,VALID,60,VALID,0.262109,
2009-06-24, 00:49:05,VALID,1008.68,VALID,0,VALID,92.1115,VALID,0.105969,VALID,23.361,VALID,60,VALID,0.120703,
2009-06-24, 00:50:05,VALID,1008.66,VALID,0,VALID,92.1267,VALID,0,VALID,23.322,VALID,55,VALID,0.322266,
2009-06-24, 00:51:05,VALID,1008.62,VALID,0,VALID,92.1572,VALID,0.105969,VALID,23.322,VALID,49,VALID,0.698828,
2009-06-24, 00:52:05,VALID,1008.59,VALID,0,VALID,92.1496,VALID,0,VALID,23.3433,VALID,52,VALID,0.0484375,
2009-06-24, 00:53:05,VALID,1008.62,VALID,0,VALID,92.1649,VALID,0.105969,VALID,23.3415,VALID,52,VALID,0,
2009-06-24, 00:54:05,VALID,1008.59,VALID,0,VALID,92.1572,VALID,0.105969,VALID,23.3026,VALID,52,VALID,0.375781,
2009-06-24, 00:55:05,VALID,1008.57,VALID,0,VALID,92.1801,VALID,0,VALID,23.322,VALID,37,VALID,0,
2009-06-24, 00:56:05,VALID,1008.56,VALID,0,VALID,92.203,VALID,0.105969,VALID,23.3026,VALID,37,VALID,0.05625,
2009-06-24, 00:57:05,VALID,1008.56,VALID,0,VALID,92.2259,VALID,0.105969,VALID,23.3026,VALID,37,VALID,0,
2009-06-24, 00:58:05,VALID,1008.52,VALID,0,VALID,92.2487,VALID,0.105969,VALID,23.2831,VALID,37,VALID,0,
2009-06-24, 00:59:05,VALID,1008.53,VALID,0,VALID,92.2487,VALID,0.105969,VALID,23.3026,VALID,37,VALID,0,
2009-06-24, 01:00:05,VALID,1008.54,VALID,0,VALID,92.2564,VALID,0,VALID,23.3043,VALID,37,VALID,0,
2009-06-24, 01:01:05,VALID,1008.53,VALID,0,VALID,92.2716,VALID,0,VALID,23.3043,VALID,37,VALID,0,
2009-06-24, 01:02:05,VALID,1008.5,VALID,0,VALID,92.2716,VALID,0,VALID,23.3043,VALID,37,VALID,0,
2009-06-24, 01:03:05,VALID,1008.53,VALID,0,VALID,92.2716,VALID,0,VALID,23.3043,VALID,37,VALID,0,
2009-06-24, 01:04:05,VALID,1008.51,VALID,0,VALID,92.2869,VALID,0,VALID,23.3043,VALID,37,VALID,0,
2009-06-24, 01:05:05,VALID,1008.49,VALID,0,VALID,92.3097,VALID,0,VALID,23.3043,VALID,37,VALID,0,
2009-06-24, 01:06:05,VALID,1008.48,VALID,0,VALID,92.3097,VALID,0,VALID,23.3043,VALID,37,VALID,0,
2009-06-24, 01:07:05,VALID,1008.47,VALID,0,VALID,92.3021,VALID,0,VALID,23.3043,VALID,37,VALID,0,
2009-06-24, 01:08:05,VALID,1008.46,VALID,0,VALID,92.3097,VALID,0,VALID,23.3238,VALID,37,VALID,0,
2009-06-24, 01:09:05,VALID,1008.46,VALID,0,VALID,92.3174,VALID,0,VALID,23.3238,VALID,37,VALID,0,
2009-06-24, 01:10:05,VALID,1008.47,VALID,0,VALID,92.3097,VALID,0,VALID,23.3026,VALID,37,VALID,0,
2009-06-24, 01:11:05,VALID,1008.43,VALID,0,VALID,92.3174,VALID,0,VALID,23.3238,VALID,37,VALID,0,
2009-06-24, 01:12:05,VALID,1008.42,VALID,0,VALID,92.3402,VALID,0,VALID,23.3238,VALID,37,VALID,0,
2009-06-24, 01:13:05,VALID,1008.42,VALID,0,VALID,92.3174,VALID,0,VALID,23.3238,VALID,23,VALID,0,
2009-06-24, 01:14:05,VALID,1008.42,VALID,0,VALID,92.3326,VALID,0,VALID,23.3238,VALID,1,VALID,0,
2009-06-24, 01:15:05,VALID,1008.41,VALID,0,VALID,92.3479,VALID,0,VALID,23.3433,VALID,355,VALID,0,
2009-06-24, 01:16:05,VALID,1008.4,VALID,0,VALID,92.3326,VALID,0,VALID,23.322,VALID,355,VALID,0,
2009-06-24, 01:17:05,VALID,1008.4,VALID,0,VALID,92.3402,VALID,0,VALID,23.3433,VALID,355,VALID,0,
2009-06-24, 01:18:05,VALID,1008.4,VALID,0,VALID,92.3402,VALID,0,VALID,23.3628,VALID,355,VALID,0,
2009-06-24, 01:19:05,VALID,1008.39,VALID,0,VALID,92.325,VALID,0,VALID,23.3628,VALID,355,VALID,0,
2009-06-24, 01:20:05,VALID,1008.37,VALID,0,VALID,92.3555,VALID,0,VALID,23.3433,VALID,355,VALID,0.455469,
2009-06-24, 01:21:05,VALID,1008.37,VALID,0,VALID,92.3555,VALID,0,VALID,23.3628,VALID,355,VALID,0.514453,
2009-06-24, 01:22:05,VALID,1008.37,VALID,0,VALID,92.325,VALID,0,VALID,23.3433,VALID,355,VALID,0.325,
2009-06-24, 01:23:05,VALID,1008.36,VALID,0,VALID,92.325,VALID,0,VALID,23.322,VALID,355,VALID,0.0925781,
2009-06-24, 01:24:05,VALID,1008.36,VALID,0,VALID,92.3402,VALID,0,VALID,23.322,VALID,313,VALID,0.183594,
2009-06-24, 01:25:05,VALID,1008.33,VALID,0,VALID,92.3326,VALID,0,VALID,23.3433,VALID,313,VALID,0.0304688,
2009-06-24, 01:26:05,VALID,1008.32,VALID,0,VALID,92.3326,VALID,0,VALID,23.3433,VALID,313,VALID,0.0871094,
2009-06-24, 01:27:05,VALID,1008.31,VALID,0,VALID,92.3326,VALID,0,VALID,23.3433,VALID,313,VALID,0.206641,
2009-06-24, 01:28:05,VALID,1008.3,VALID,0,VALID,92.325,VALID,0,VALID,23.3415,VALID,313,VALID,0.175,
2009-06-24, 01:29:05,VALID,1008.28,VALID,0,VALID,92.3326,VALID,0,VALID,23.3628,VALID,313,VALID,0.0558594,
2009-06-24, 01:30:04,VALID,1008.23,VALID,0,VALID,92.3326,VALID,0,VALID,23.3433,VALID,313,VALID,0,
2009-06-24, 01:31:04,VALID,1008.23,VALID,0,VALID,92.325,VALID,0,VALID,23.3628,VALID,313,VALID,0,
2009-06-24, 01:32:04,VALID,1008.2,VALID,0,VALID,92.325,VALID,0,VALID,23.322,VALID,313,VALID,0,
2009-06-24, 01:33:04,VALID,1008.2,VALID,0,VALID,92.3326,VALID,0,VALID,23.3433,VALID,313,VALID,0,
2009-06-24, 01:34:04,VALID,1008.19,VALID,0,VALID,92.3174,VALID,0,VALID,23.3433,VALID,313,VALID,0,
2009-06-24, 01:35:04,VALID,1008.18,VALID,0,VALID,92.325,VALID,0,VALID,23.322,VALID,313,VALID,0,
2009-06-24, 01:36:04,VALID,1008.18,VALID,0,VALID,92.3402,VALID,0,VALID,23.3433,VALID,313,VALID,0,
2009-06-24, 01:37:04,VALID,1008.23,VALID,0,VALID,92.3402,VALID,0,VALID,23.3026,VALID,313,VALID,0,
2009-06-24, 01:38:04,VALID,1008.21,VALID,0,VALID,92.3402,VALID,0,VALID,23.3238,VALID,313,VALID,0,
2009-06-24, 01:39:04,VALID,1008.2,VALID,0,VALID,92.3555,VALID,0,VALID,23.3043,VALID,313,VALID,0,
2009-06-24, 01:40:04,VALID,1008.2,VALID,0,VALID,92.3631,VALID,0,VALID,23.2831,VALID,313,VALID,0,
2009-06-24, 01:41:04,VALID,1008.18,VALID,0,VALID,92.3784,VALID,0,VALID,23.2848,VALID,314,VALID,0,
2009-06-24, 01:42:04,VALID,1008.17,VALID,0,VALID,92.3784,VALID,0,VALID,23.3043,VALID,314,VALID,0,
2009-06-24, 01:43:04,VALID,1008.16,VALID,0,VALID,92.3784,VALID,0,VALID,23.3238,VALID,314,VALID,0,
2009-06-24, 01:44:04,VALID,1008.14,VALID,0,VALID,92.3631,VALID,0,VALID,23.3043,VALID,314,VALID,0,
2009-06-24, 01:45:04,VALID,1008.16,VALID,0,VALID,92.3784,VALID,0,VALID,23.3043,VALID,314,VALID,0,
2009-06-24, 01:46:04,VALID,1008.16,VALID,0,VALID,92.386,VALID,0,VALID,23.3238,VALID,314,VALID,0,
2009-06-24, 01:47:04,VALID,1008.15,VALID,0,VALID,92.4089,VALID,0,VALID,23.3043,VALID,314,VALID,0,
2009-06-24, 01:48:04,VALID,1008.1,VALID,0,VALID,92.4013,VALID,0,VALID,23.3043,VALID,314,VALID,0,
2009-06-24, 01:49:04,VALID,1008.1,VALID,0,VALID,92.3936,VALID,0,VALID,23.2831,VALID,314,VALID,0,
2009-06-24, 01:50:04,VALID,1008.11,VALID,0,VALID,92.3936,VALID,0,VALID,23.3043,VALID,314,VALID,0,
2009-06-24, 01:51:04,VALID,1008.09,VALID,0,VALID,92.4089,VALID,0,VALID,23.3238,VALID,93,VALID,0,
2009-06-24, 01:52:04,VALID,1008.05,VALID,0,VALID,92.4013,VALID,0,VALID,23.3043,VALID,114,VALID,0,
2009-06-24, 01:53:04,VALID,1008.06,VALID,0,VALID,92.3936,VALID,0,VALID,23.3238,VALID,114,VALID,0,
2009-06-24, 01:54:04,VALID,1008.02,VALID,0,VALID,92.4013,VALID,0,VALID,23.3238,VALID,114,VALID,0,
2009-06-24, 01:55:04,VALID,1008.04,VALID,0,VALID,92.4089,VALID,0,VALID,23.3433,VALID,114,VALID,0,
2009-06-24, 01:56:04,VALID,1008.01,VALID,0,VALID,92.4089,VALID,0,VALID,23.3238,VALID,114,VALID,0,
2009-06-24, 01:57:04,VALID,1007.98,VALID,0,VALID,92.4013,VALID,0,VALID,23.2831,VALID,114,VALID,0,
2009-06-24, 01:58:04,VALID,1008,VALID,0,VALID,92.3936,VALID,0,VALID,23.3043,VALID,111,VALID,0,
2009-06-24, 01:59:04,VALID,1007.97,VALID,0,VALID,92.4013,VALID,0,VALID,23.3238,VALID,101,VALID,0.296875,
2009-06-24, 02:00:04,VALID,1007.94,VALID,0,VALID,92.386,VALID,0.105969,VALID,23.322,VALID,69,VALID,0.585156,
2009-06-24, 02:01:04,VALID,1007.92,VALID,0,VALID,92.386,VALID,0.105969,VALID,23.322,VALID,66,VALID,0.504687,
2009-06-24, 02:02:04,VALID,1007.89,VALID,0,VALID,92.4089,VALID,0.105969,VALID,23.3026,VALID,66,VALID,0.586719,
2009-06-24, 02:03:04,VALID,1007.85,VALID,0,VALID,92.3936,VALID,0.105969,VALID,23.3026,VALID,64,VALID,0.665625,
2009-06-24, 02:04:04,VALID,1007.86,VALID,0,VALID,92.3936,VALID,0,VALID,23.2831,VALID,82,VALID,0.592969,
2009-06-24, 02:05:04,VALID,1007.83,VALID,0,VALID,92.3784,VALID,0.105969,VALID,23.2636,VALID,81,VALID,0.466406,
2009-06-24, 02:06:04,VALID,1007.84,VALID,0,VALID,92.386,VALID,0,VALID,23.2831,VALID,76,VALID,0.471094,
2009-06-24, 02:07:04,VALID,1007.81,VALID,0,VALID,92.386,VALID,0.105969,VALID,23.2636,VALID,64,VALID,0.654688,
2009-06-24, 02:08:04,VALID,1007.82,VALID,0,VALID,92.3784,VALID,0,VALID,23.2441,VALID,89,VALID,0.732422,
2009-06-24, 02:09:04,VALID,1007.83,VALID,0,VALID,92.3936,VALID,0,VALID,23.2246,VALID,90,VALID,0.569531,
2009-06-24, 02:10:04,VALID,1007.82,VALID,0,VALID,92.4089,VALID,0.105969,VALID,23.2246,VALID,94,VALID,0.547266,
2009-06-24, 02:11:04,VALID,1007.8,VALID,0,VALID,92.4089,VALID,0.105969,VALID,23.1839,VALID,94,VALID,0.823828,
2009-06-24, 02:12:04,VALID,1007.82,VALID,0,VALID,92.4165,VALID,0.105969,VALID,23.1857,VALID,82,VALID,0.584375,
2009-06-24, 02:13:04,VALID,1007.82,VALID,0,VALID,92.4241,VALID,0.105969,VALID,23.1662,VALID,80,VALID,0.397656,
2009-06-24, 02:14:04,VALID,1007.82,VALID,0,VALID,92.4394,VALID,0.105969,VALID,23.1662,VALID,77,VALID,0.545313,
2009-06-24, 02:15:04,VALID,1007.85,VALID,0,VALID,92.4165,VALID,0,VALID,23.1485,VALID,76,VALID,0.125391,
2009-06-24, 02:16:04,VALID,1007.86,VALID,0,VALID,92.4394,VALID,0,VALID,23.1485,VALID,76,VALID,0.00664063,
2009-06-24, 02:17:04,VALID,1007.85,VALID,0,VALID,92.4318,VALID,0,VALID,23.1697,VALID,76,VALID,0,
2009-06-24, 02:18:04,VALID,1007.83,VALID,0,VALID,92.4546,VALID,0,VALID,23.1272,VALID,76,VALID,0,
2009-06-24, 02:19:04,VALID,1007.83,VALID,0,VALID,92.4546,VALID,0,VALID,23.1502,VALID,76,VALID,0.315234,
2009-06-24, 02:20:04,VALID,1007.8,VALID,0,VALID,92.4699,VALID,0,VALID,23.1485,VALID,76,VALID,0.0941406,
2009-06-24, 02:21:04,VALID,1007.83,VALID,0,VALID,92.4699,VALID,0,VALID,23.1485,VALID,76,VALID,0.357422,
2009-06-24, 02:22:04,VALID,1007.84,VALID,0,VALID,92.4775,VALID,0,VALID,23.129,VALID,76,VALID,0.266016,
2009-06-24, 02:23:04,VALID,1007.85,VALID,0,VALID,92.4775,VALID,0,VALID,23.129,VALID,76,VALID,0.192578,
2009-06-24, 02:24:04,VALID,1007.87,VALID,0,VALID,92.4699,VALID,0,VALID,23.1485,VALID,76,VALID,0.084375,
2009-06-24, 02:25:04,VALID,1007.88,VALID,0,VALID,92.4928,VALID,0,VALID,23.1697,VALID,76,VALID,0,
2009-06-24, 02:26:04,VALID,1007.9,VALID,0,VALID,92.4928,VALID,0,VALID,23.1485,VALID,76,VALID,0,
2009-06-24, 02:27:04,VALID,1007.92,VALID,0,VALID,92.508,VALID,0,VALID,23.1485,VALID,76,VALID,0,
2009-06-24, 02:28:04,VALID,1007.92,VALID,0,VALID,92.4928,VALID,0,VALID,23.1485,VALID,76,VALID,0.326562,
2009-06-24, 02:29:04,VALID,1007.95,VALID,0,VALID,92.508,VALID,0,VALID,23.1679,VALID,84,VALID,0.354688,
2009-06-24, 02:30:04,VALID,1007.94,VALID,0,VALID,92.5004,VALID,0,VALID,23.1467,VALID,164,VALID,0.403906,
2009-06-24, 02:31:04,VALID,1007.95,VALID,0,VALID,92.5156,VALID,0,VALID,23.1857,VALID,164,VALID,0.219922,
2009-06-24, 02:32:04,VALID,1007.97,VALID,0,VALID,92.5309,VALID,0.105969,VALID,23.1857,VALID,164,VALID,0,
2009-06-24, 02:33:04,VALID,1007.97,VALID,0,VALID,92.5233,VALID,0,VALID,23.1857,VALID,164,VALID,0,
2009-06-24, 02:34:04,VALID,1007.97,VALID,0,VALID,92.508,VALID,0,VALID,23.1857,VALID,173,VALID,0,
2009-06-24, 02:35:04,VALID,1007.99,VALID,0,VALID,92.5233,VALID,0.105969,VALID,23.1662,VALID,193,VALID,0,
2009-06-24, 02:36:04,VALID,1008,VALID,0,VALID,92.5233,VALID,0.105969,VALID,23.1662,VALID,193,VALID,0,
2009-06-24, 02:37:04,VALID,1008.01,VALID,0,VALID,92.5156,VALID,0,VALID,23.1467,VALID,182,VALID,0.892187,
2009-06-24, 02:38:04,VALID,1008.03,VALID,0,VALID,92.5385,VALID,0.105969,VALID,23.1662,VALID,175,VALID,0.971484,
2009-06-24, 02:39:04,VALID,1008.05,VALID,0,VALID,92.5385,VALID,0,VALID,23.1467,VALID,170,VALID,0.855469,
2009-06-24, 02:40:04,VALID,1008.07,VALID,0,VALID,92.5309,VALID,0.105969,VALID,23.1874,VALID,171,VALID,1.06484,
2009-06-24, 02:41:04,VALID,1008.04,VALID,0,VALID,92.5233,VALID,0,VALID,23.1644,VALID,179,VALID,0.753125,
2009-06-24, 02:42:04,VALID,1008.05,VALID,0,VALID,92.5385,VALID,0.105969,VALID,23.2246,VALID,184,VALID,0.805078,
2009-06-24, 02:43:04,VALID,1008.08,VALID,0,VALID,92.5233,VALID,0,VALID,23.2246,VALID,182,VALID,0.681641,
2009-06-24, 02:44:04,VALID,1008.08,VALID,0,VALID,92.5233,VALID,0,VALID,23.2441,VALID,195,VALID,1.24648,
2009-06-24, 02:45:04,VALID,1008.04,VALID,0,VALID,92.5233,VALID,0,VALID,23.2636,VALID,195,VALID,0.814844,
2009-06-24, 02:46:04,VALID,1008.02,VALID,0,VALID,92.5309,VALID,0,VALID,23.3026,VALID,191,VALID,0.550781,
2009-06-24, 02:47:04,VALID,1007.95,VALID,0,VALID,92.5309,VALID,0.105969,VALID,23.322,VALID,166,VALID,0.903906,
2009-06-24, 02:48:04,VALID,1007.94,VALID,0,VALID,92.5309,VALID,0,VALID,23.322,VALID,167,VALID,0.952344,
2009-06-24, 02:49:04,VALID,1007.93,VALID,0,VALID,92.5156,VALID,0.105969,VALID,23.3433,VALID,142,VALID,1.22109,
2009-06-24, 02:50:04,VALID,1007.92,VALID,0,VALID,92.5004,VALID,0.105969,VALID,23.3415,VALID,156,VALID,0.963672,
2009-06-24, 02:51:04,VALID,1007.89,VALID,0,VALID,92.5004,VALID,0.105969,VALID,23.3805,VALID,163,VALID,0.660156,
2009-06-24, 02:52:04,VALID,1007.83,VALID,0,VALID,92.4851,VALID,0.105969,VALID,23.4,VALID,145,VALID,0.640625,
2009-06-24, 02:53:04,VALID,1007.83,VALID,0,VALID,92.5004,VALID,0,VALID,23.3805,VALID,134,VALID,0.951172,
2009-06-24, 02:54:04,VALID,1007.81,VALID,0,VALID,92.4775,VALID,0.105969,VALID,23.4194,VALID,120,VALID,0.803516,
2009-06-24, 02:55:04,VALID,1007.79,VALID,0,VALID,92.4623,VALID,0.105969,VALID,23.4194,VALID,137,VALID,0.985937,
2009-06-24, 02:56:04,VALID,1007.78,VALID,0,VALID,92.4546,VALID,0,VALID,23.4389,VALID,138,VALID,0.779297,
2009-06-24, 02:57:04,VALID,1007.78,VALID,0,VALID,92.4318,VALID,0.105969,VALID,23.4389,VALID,135,VALID,1.04648,
2009-06-24, 02:58:04,VALID,1007.78,VALID,0,VALID,92.4165,VALID,0,VALID,23.4389,VALID,136,VALID,1.14922,
2009-06-24, 02:59:04,VALID,1007.82,VALID,0,VALID,92.3708,VALID,0.105969,VALID,23.4779,VALID,149,VALID,0.608984,
2009-06-24, 03:00:04,VALID,1007.84,VALID,0,VALID,92.325,VALID,0,VALID,23.4797,VALID,153,VALID,0.619141,
2009-06-24, 03:01:04,VALID,1007.86,VALID,0,VALID,92.2792,VALID,0,VALID,23.4602,VALID,156,VALID,0.948828,
2009-06-24, 03:02:04,VALID,1007.9,VALID,0,VALID,92.2411,VALID,0,VALID,23.4602,VALID,155,VALID,0.376953,
2009-06-24, 03:03:04,VALID,1007.91,VALID,0,VALID,92.1877,VALID,0,VALID,23.462,VALID,172,VALID,0.567187,
2009-06-24, 03:04:04,VALID,1007.97,VALID,0,VALID,92.1496,VALID,0,VALID,23.4407,VALID,172,VALID,0.382813,
2009-06-24, 03:05:04,VALID,1007.99,VALID,0,VALID,92.1496,VALID,0,VALID,23.4212,VALID,172,VALID,0.526563,
2009-06-24, 03:06:04,VALID,1008.04,VALID,0,VALID,92.1115,VALID,0,VALID,23.4407,VALID,171,VALID,0.760938,
2009-06-24, 03:07:04,VALID,1008.07,VALID,0,VALID,92.1191,VALID,0,VALID,23.4407,VALID,164,VALID,1.01992,
2009-06-24, 03:08:04,VALID,1008.13,VALID,0,VALID,92.081,VALID,0,VALID,23.4407,VALID,152,VALID,0.836719,
2009-06-24, 03:09:04,VALID,1008.19,VALID,0,VALID,92.0581,VALID,0,VALID,23.4212,VALID,143,VALID,0.729688,
2009-06-24, 03:10:04,VALID,1008.26,VALID,0,VALID,92.0581,VALID,0,VALID,23.4407,VALID,140,VALID,1.00039,
2009-06-24, 03:11:04,VALID,1008.31,VALID,0,VALID,92.0581,VALID,0,VALID,23.4602,VALID,145,VALID,1.27969,
2009-06-24, 03:12:04,VALID,1008.39,VALID,0,VALID,92.0505,VALID,0,VALID,23.4992,VALID,147,VALID,1.50273,
2009-06-24, 03:13:04,VALID,1008.4,VALID,0,VALID,92.081,VALID,0,VALID,23.5381,VALID,166,VALID,1.65664,
2009-06-24, 03:14:04,VALID,1008.42,VALID,0,VALID,92.0657,VALID,0,VALID,23.5576,VALID,174,VALID,1.76641,
2009-06-24, 03:15:04,VALID,1008.39,VALID,0,VALID,92.0428,VALID,0,VALID,23.5948,VALID,137,VALID,1.28828,
2009-06-24, 03:16:04,VALID,1008.37,VALID,0,VALID,92.0047,VALID,0,VALID,23.6143,VALID,146,VALID,0.876172,
2009-06-24, 03:17:04,VALID,1008.37,VALID,0,VALID,91.9971,VALID,0.105969,VALID,23.6338,VALID,156,VALID,1.64922,
2009-06-24, 03:18:04,VALID,1008.4,VALID,0,VALID,91.9742,VALID,0,VALID,23.6338,VALID,166,VALID,1.96484,
2009-06-24, 03:19:04,VALID,1008.42,VALID,0,VALID,91.9513,VALID,0.105969,VALID,23.6515,VALID,142,VALID,0.850391,
2009-06-24, 03:20:04,VALID,1008.42,VALID,0,VALID,91.9056,VALID,0,VALID,23.6532,VALID,165,VALID,2.12109,
2009-06-24, 03:21:04,VALID,1008.41,VALID,0,VALID,91.8446,VALID,0,VALID,23.6922,VALID,149,VALID,1.83984,
2009-06-24, 03:22:04,VALID,1008.42,VALID,0,VALID,91.7912,VALID,0,VALID,23.7117,VALID,165,VALID,1.05781,
2009-06-24, 03:23:04,VALID,1008.4,VALID,0,VALID,91.7454,VALID,0,VALID,23.7117,VALID,189,VALID,1.55039,
2009-06-24, 03:24:04,VALID,1008.45,VALID,0,VALID,91.7073,VALID,0,VALID,23.7312,VALID,169,VALID,0.993359,
2009-06-24, 03:25:04,VALID,1008.51,VALID,0,VALID,91.6768,VALID,0,VALID,23.7525,VALID,146,VALID,1.27734,
2009-06-24, 03:26:04,VALID,1008.48,VALID,0,VALID,91.6539,VALID,0,VALID,23.7312,VALID,166,VALID,0.746875,
2009-06-24, 03:27:04,VALID,1008.48,VALID,0,VALID,91.6539,VALID,0,VALID,23.7525,VALID,146,VALID,0.883203,
2009-06-24, 03:28:04,VALID,1008.5,VALID,0,VALID,91.6463,VALID,0,VALID,23.7507,VALID,179,VALID,0.86875,
2009-06-24, 03:29:04,VALID,1008.5,VALID,0,VALID,91.6463,VALID,0,VALID,23.7507,VALID,166,VALID,0.457812,
2009-06-24, 03:30:04,VALID,1008.52,VALID,0,VALID,91.6311,VALID,0,VALID,23.7312,VALID,138,VALID,2.41875,
2009-06-24, 03:31:04,VALID,1008.55,VALID,0,VALID,91.6158,VALID,0,VALID,23.7507,VALID,166,VALID,1.94531,
2009-06-24, 03:32:04,VALID,1008.52,VALID,0,VALID,91.6082,VALID,0,VALID,23.7507,VALID,185,VALID,1.34727,
2009-06-24, 03:33:04,VALID,1008.51,VALID,0,VALID,91.5929,VALID,0,VALID,23.7507,VALID,145,VALID,0.874609,
2009-06-24, 03:34:04,VALID,1008.52,VALID,0,VALID,91.6082,VALID,0,VALID,23.7312,VALID,149,VALID,1.2375,
2009-06-24, 03:35:04,VALID,1008.51,VALID,0,VALID,91.6005,VALID,0,VALID,23.7312,VALID,136,VALID,1.44922,
2009-06-24, 03:36:04,VALID,1008.53,VALID,0,VALID,91.57,VALID,0,VALID,23.7312,VALID,128,VALID,1.82344,
2009-06-24, 03:37:04,VALID,1008.54,VALID,0,VALID,91.57,VALID,0,VALID,23.7312,VALID,132,VALID,1.21914,
2009-06-24, 03:38:04,VALID,1008.53,VALID,0,VALID,91.5548,VALID,0,VALID,23.7312,VALID,155,VALID,1.59336,
2009-06-24, 03:39:04,VALID,1008.5,VALID,0,VALID,91.5472,VALID,0,VALID,23.7117,VALID,100,VALID,1.09375,
2009-06-24, 03:40:04,VALID,1008.53,VALID,0,VALID,91.5624,VALID,0,VALID,23.7135,VALID,125,VALID,0.826563,
2009-06-24, 03:41:04,VALID,1008.54,VALID,0,VALID,91.5777,VALID,0,VALID,23.7117,VALID,142,VALID,0.868359,
2009-06-24, 03:42:04,VALID,1008.55,VALID,0,VALID,91.57,VALID,0,VALID,23.6922,VALID,139,VALID,0.842969,
2009-06-24, 03:43:04,VALID,1008.57,VALID,0,VALID,91.5853,VALID,0,VALID,23.6515,VALID,107,VALID,0.575781,
2009-06-24, 03:44:04,VALID,1008.55,VALID,0,VALID,91.57,VALID,0,VALID,23.6745,VALID,150,VALID,0.899609,
2009-06-24, 03:45:04,VALID,1008.57,VALID,0,VALID,91.57,VALID,0,VALID,23.655,VALID,95,VALID,0.793359,
2009-06-24, 03:46:04,VALID,1008.57,VALID,0,VALID,91.57,VALID,0,VALID,23.6356,VALID,143,VALID,1.10938,